Theta_e
303 304 306 320 323 324 326 327 324 325 325 323 323 323 324 324 327 332 329 328 333 334 333 336 335 333 333 330 322 319 322 324 326 329 330 332 333 327 321 314 318 323 326 328 315 323 329 326 326
302 305 312 323 324 320 319 323 326 325 323 323 325 325 326 328 327 326 328 331 332 334 334 337 337 334 334 332 325 321 322 324 327 331 332 333 333 325 317 314 313 315 318 322 318 316 319 319 319
301 308 318 322 323 314 314 320 322 321 324 324 324 325 325 327 332 333 331 333 335 334 334 337 338 334 334 334 329 323 322 324 326 331 331 333 328 316 315 319 318 319 319 316 316 315 316 316 317
306 314 316 321 317 317 315 317 318 319 322 323 323 323 324 328 325 325 327 331 335 334 335 340 340 336 334 335 334 329 323 323 328 331 330 333 327 319 318 315 317 319 324 320 318 315 316 317 319
304 317 312 316 314 314 313 314 317 319 319 320 321 322 322 322 326 326 327 333 334 334 338 341 341 338 335 335 335 333 332 331 330 330 331 332 330 324 320 314 320 320 321 325 318 316 317 318 320
306 313 313 309 307 310 312 314 316 317 317 319 319 314 319 324 329 326 328 333 334 334 337 339 340 339 338 337 336 334 332 332 331 330 331 330 331 328 320 319 326 327 326 316 319 317 317 319 321
304 309 307 308 307 308 311 307 307 306 311 313 309 314 319 321 318 321 329 333 334 335 338 339 339 340 340 339 337 334 331 331 331 331 330 329 329 329 322 326 327 326 329 323 317 318 318 321 322
304 306 305 305 307 307 304 304 304 305 305 306 309 319 313 311 311 316 330 335 335 336 338 340 337 339 340 340 338 334 332 332 330 329 329 328 328 327 326 324 325 328 328 326 324 318 320 322 324
303 302 301 301 303 302 302 303 304 304 304 305 305 305 306 309 308 313 329 335 335 335 337 338 338 338 339 338 338 335 332 329 328 328 327 328 326 325 328 323 325 326 324 323 326 321 321 321 323
301 300 299 299 301 302 302 302 303 303 303 303 303 305 308 308 307 307 309 327 335 335 335 338 338 338 338 338 336 335 331 327 328 328 327 327 326 324 328 324 326 326 321 325 325 324 322 320 321
301 301 299 301 302 302 302 301 301 302 302 302 302 304 304 303 305 305 306 308 321 332 334 334 337 337 337 337 334 334 331 328 329 327 325 326 325 324 326 326 326 324 323 325 323 323 322 321 319
301 300 301 301 301 300 300 300 300 301 301 300 300 299 299 303 304 304 305 306 309 318 331 334 335 335 336 335 333 335 329 327 328 325 325 326 325 324 324 320 324 321 324 325 324 326 323 320 321
300 300 300 300 300 300 300 300 300 300 299 299 299 299 299 299 300 303 305 306 306 310 317 331 334 335 335 334 333 333 328 325 325 323 324 325 324 324 325 324 319 321 323 324 325 325 323 319 318
299 299 300 300 300 300 300 300 299 299 299 299 299 299 299 300 303 302 303 304 304 305 308 319 330 335 334 333 333 331 326 324 325 323 324 324 324 323 325 324 317 320 323 323 324 323 322 320 319
300 300 300 300 299 299 299 299 299 299 299 299 299 299 299 300 300 300 300 300 302 303 306 305 318 331 333 334 335 331 323 323 325 323 325 324 324 323 325 320 316 318 322 323 323 322 322 321 319
300 299 300 299 299 299 298 300 299 299 299 299 300 300 300 301 301 302 302 302 302 303 304 307 319 325 332 334 333 330 323 322 324 321 324 323 324 323 322 320 315 316 319 321 323 323 322 321 320
300 300 300 300 299 299 299 301 299 300 299 298 300 300 300 301 301 301 302 303 304 304 304 309 317 326 327 332 333 332 322 322 322 320 323 323 324 324 319 324 315 315 318 321 322 323 322 322 322
300 300 300 300 299 299 300 300 300 300 300 300 300 300 300 300 301 301 302 302 302 303 305 310 317 323 327 331 329 329 324 327 324 318 318 315 317 319 320 318 316 314 316 320 323 323 323 323 323
299 300 300 299 299 300 300 300 300 300 300 300 300 300 300 300 301 301 302 302 302 304 307 317 319 325 330 327 328 327 324 323 322 321 317 315 315 314 313 315 316 314 315 317 321 323 323 323 324
299 299 300 300 299 300 300 300 299 299 300 300 300 300 300 299 300 300 301 302 302 305 310 317 318 328 327 325 327 328 326 323 322 319 318 316 316 315 314 313 315 315 314 316 318 321 323 324 324
299 300 300 301 300 300 300 300 300 299 299 299 300 300 299 299 300 300 301 302 302 305 317 314 317 326 326 325 324 325 325 323 322 322 321 319 318 313 313 313 315 315 315 317 318 319 323 324 323
296 299 300 301 301 301 300 301 299 298 297 295 294 296 297 298 300 300 301 301 302 303 313 315 319 327 326 325 327 325 326 325 324 322 322 322 322 318 313 311 312 314 318 320 322 322 322 324 324
295 297 299 299 300 301 300 301 300 297 295 293 292 292 293 295 298 300 301 301 302 302 307 319 318 323 326 327 323 325 325 326 325 326 326 325 326 323 320 315 315 314 316 319 319 319 321 322 322
297 296 297 299 301 301 301 301 298 294 293 292 290 290 291 293 299 299 300 301 301 302 307 314 315 322 324 324 324 326 326 326 326 326 326 328 328 327 324 320 319 320 321 321 320 319 321 322 323
295 294 292 295 299 302 303 303 296 292 290 290 289 289 290 294 299 300 300 301 301 302 309 314 317 321 321 322 323 320 326 326 326 326 325 327 328 327 325 322 321 322 321 321 322 323 323 322 322
294 295 296 294 300 299 299 301 297 290 289 287 287 296 296 297 298 300 299 300 300 303 314 316 321 321 323 322 321 322 320 321 324 325 325 323 325 323 323 323 322 322 322 320 320 318 318 316 315
292 293 292 293 296 298 301 293 294 288 287 286 286 297 297 298 299 304 304 304 304 313 319 319 319 321 321 323 321 319 320 320 320 323 320 320 318 321 318 321 319 317 318 317 319 315 313 311 309
293 291 291 294 295 296 298 290 287 285 285 283 286 300 301 301 302 303 306 309 312 314 317 320 320 321 319 318 318 317 317 316 313 313 312 315 311 313 319 318 317 312 311 313 308 307 304 304 302
292 290 291 291 295 294 294 290 286 284 283 282 287 297 297 298 298 299 303 305 307 310 315 318 318 318 317 317 315 316 316 316 315 315 312 310 310 309 314 307 305 304 305 303 303 302 300 301 299
293 289 289 284 289 289 293 291 285 283 281 282 285 292 294 294 294 295 297 298 302 305 307 310 310 316 310 310 311 310 314 307 305 304 304 305 305 303 303 302 302 300 300 299 299 298 297 297 296
Wind_Speed
8 6 6 6 0 3 5 6 1 3 2 5 3 4 5 13 4 4 9 17 15 24 35 36 38 37 35 33 31 30 29 28 26 24 23 22 23 20 19 19 20 21 21 23 22 26 23 21 19
6 1 7 5 3 6 8 7 9 10 7 3 7 5 2 4 12 18 26 19 15 25 38 38 38 39 37 34 31 30 29 27 26 25 24 24 23 20 20 19 21 20 21 20 21 22 22 20 18
4 3 5 3 6 15 7 5 15 11 18 13 8 5 6 3 4 6 16 20 17 25 39 38 39 40 38 35 32 30 28 27 26 25 26 26 23 21 20 19 20 20 21 21 21 21 21 19 17
1 3 1 3 16 4 2 2 2 4 4 9 7 9 11 9 11 18 21 18 18 27 40 38 39 39 38 36 33 30 28 27 27 26 25 25 23 21 21 20 20 20 19 20 20 20 19 17 15
2 3 2 5 5 3 3 4 5 4 5 7 8 6 10 17 12 16 20 13 17 29 40 38 39 38 37 35 33 31 28 27 25 26 26 26 23 23 22 21 20 20 20 18 19 18 18 16 14
0 2 1 6 5 1 2 6 5 3 6 8 7 9 9 11 13 14 14 10 14 27 40 38 39 37 36 35 33 31 30 28 27 27 26 25 25 24 23 22 21 20 19 20 18 17 17 16 14
3 2 4 3 3 3 2 7 4 4 5 2 15 4 7 11 18 18 12 9 14 26 37 37 39 38 36 36 33 33 32 30 30 29 26 26 26 24 25 23 21 21 19 19 18 16 16 15 13
1 2 3 4 3 6 3 4 4 4 4 16 3 2 6 22 23 22 11 9 16 24 33 36 40 40 39 36 34 33 32 32 32 31 27 26 27 25 24 25 22 21 19 19 17 17 15 14 12
1 0 4 5 3 5 2 6 7 8 11 10 14 22 25 18 21 18 9 12 16 25 30 36 41 42 39 37 34 33 32 33 31 31 28 26 27 26 26 25 24 22 21 18 17 16 15 15 15
4 3 7 5 3 4 7 6 7 8 14 16 27 22 11 18 22 21 21 11 16 25 29 35 40 42 41 39 36 35 33 33 32 32 31 30 28 28 27 27 24 22 21 18 18 16 16 16 17
4 5 4 4 8 9 4 9 13 6 15 20 20 26 27 34 30 29 26 22 18 15 25 34 41 44 43 41 40 37 36 35 33 34 31 32 30 30 28 25 26 23 23 21 20 19 17 17 17
4 10 11 5 10 9 5 10 6 18 32 23 30 34 32 23 31 34 29 23 23 19 19 29 40 47 46 46 42 38 40 38 37 33 33 34 33 33 31 29 27 27 27 26 23 20 17 17 18
7 9 15 17 21 17 21 21 17 33 23 30 34 35 38 31 30 34 28 27 25 25 23 23 33 49 50 48 44 42 42 41 38 35 35 35 35 33 31 28 28 29 28 26 23 20 18 17 17
5 5 10 17 23 19 18 26 10 22 25 32 28 33 33 24 23 33 35 36 34 28 25 28 29 51 53 53 49 46 45 43 40 37 37 36 35 34 32 29 29 30 28 26 23 20 17 17 17
11 10 10 16 23 9 17 10 10 31 28 31 32 29 31 26 23 29 34 34 32 30 26 27 36 43 44 55 52 48 46 45 41 37 38 36 35 34 31 31 30 30 28 26 24 22 19 18 17
6 4 4 3 4 9 8 21 14 20 22 25 26 24 20 22 23 24 29 29 30 29 28 25 23 27 46 57 53 49 47 45 43 39 39 36 36 35 30 30 30 29 28 27 25 23 21 19 19
4 6 8 14 8 8 7 16 4 13 12 17 20 27 29 32 24 24 21 23 23 25 25 22 20 28 37 47 53 49 47 45 44 38 37 37 36 35 33 33 30 29 28 28 26 24 23 21 20
10 15 15 17 4 12 19 23 20 26 26 24 26 31 32 31 29 23 21 18 16 18 22 19 16 18 25 49 36 45 46 46 42 37 35 33 31 32 30 32 31 30 29 29 28 26 24 23 20
13 13 19 24 18 14 18 20 22 20 27 28 29 29 28 34 27 23 25 21 20 16 21 16 12 20 28 36 33 47 51 41 41 39 35 32 30 27 29 31 32 31 31 30 29 27 26 26 24
14 16 20 16 4 10 13 21 21 18 17 28 26 25 26 27 29 23 24 22 17 13 17 12 11 15 22 25 33 44 44 45 46 39 37 33 30 28 29 32 33 32 32 30 30 30 30 29 28
16 11 14 17 17 10 11 11 4 6 7 14 13 18 24 26 29 27 23 21 16 10 14 9 9 16 21 20 19 27 36 43 43 44 42 36 31 27 28 31 31 30 31 31 29 31 33 32 30
8 5 13 19 15 3 6 5 4 8 11 15 20 20 19 17 24 28 29 21 14 9 12 8 10 13 19 20 28 37 38 39 41 43 39 35 32 30 29 28 29 31 31 31 30 30 33 34 35
10 17 21 19 16 10 3 4 4 8 16 23 21 27 24 20 14 20 21 21 11 9 7 12 7 4 13 23 25 38 40 36 37 38 37 37 34 32 30 31 29 28 32 32 31 36 36 36 38
13 11 20 2 3 2 1 6 3 9 16 23 20 29 28 22 13 11 12 14 12 6 9 13 6 1 8 14 10 38 30 34 35 35 36 36 35 33 34 31 30 29 29 31 31 34 35 38 37
20 15 4 5 3 2 4 4 6 18 23 19 24 36 34 18 11 4 6 11 8 5 8 17 11 10 10 15 9 6 4 22 32 31 32 35 35 34 32 30 30 30 31 34 34 35 36 39 35
13 7 4 4 3 5 10 3 1 26 28 28 41 26 12 10 9 6 1 3 3 4 11 18 16 20 18 14 16 6 5 13 16 23 32 28 29 29 28 28 27 27 28 25 22 20 22 23 24
9 12 10 4 5 3 3 7 3 31 34 35 44 23 20 21 21 21 17 13 10 11 20 20 13 15 19 18 17 14 10 3 13 10 18 14 14 11 10 11 8 8 9 7 7 8 8 9 8
10 11 4 4 5 4 5 6 9 28 27 33 31 24 27 28 26 28 26 25 23 23 30 29 22 23 23 26 30 32 31 23 22 23 24 20 18 17 6 4 2 6 6 4 4 5 7 5 8
13 10 3 2 3 3 5 2 10 17 21 24 25 29 30 29 30 32 31 30 32 35 38 38 35 36 37 33 33 30 28 24 23 22 23 24 23 21 17 19 18 20 19 18 17 17 15 14 13
17 12 5 3 6 3 3 2 15 18 19 26 31 32 31 30 31 35 37 37 38 39 41 44 42 38 37 37 35 39 29 32 34 36 34 29 30 29 29 27 28 28 28 26 25 23 20 19 18
Wind_Direction
316 275 222 175 18 249 232 220 211 206 245 222 167 173 203 222 215 222 293 312 268 204 198 195 189 188 187 185 184 185 186 184 184 183 181 178 169 178 178 174 161 161 162 162 157 152 159 163 158
324 263 175 147 173 236 243 205 230 219 236 237 301 289 191 258 265 256 283 295 261 204 196 194 190 189 188 186 186 186 187 186 184 181 177 174 178 182 180 174 164 164 161 160 157 158 161 160 160
324 170 164 161 216 230 226 196 226 238 244 271 304 271 285 238 304 297 323 313 230 204 196 194 192 191 189 187 187 188 187 188 185 182 177 176 185 183 181 176 165 165 163 162 162 161 160 162 166
132 157 157 215 232 290 188 59 55 333 308 261 282 272 256 249 316 310 306 296 245 205 196 193 192 193 191 189 188 189 189 189 186 180 179 175 182 182 181 180 170 167 166 165 168 166 167 167 166
167 172 205 253 261 255 304 273 291 301 308 281 322 283 290 299 305 296 299 297 256 206 193 195 194 195 193 192 192 192 188 188 186 181 182 175 179 183 183 177 173 170 170 170 175 173 170 172 173
291 112 197 244 234 318 286 337 311 288 295 273 287 321 270 276 304 321 298 298 235 206 195 197 196 197 198 195 195 194 190 189 187 186 188 187 180 180 180 174 171 171 173 180 182 179 178 178 174
139 120 234 267 235 272 208 353 54 324 311 335 320 233 267 269 325 325 297 262 226 206 203 201 198 200 202 198 197 196 193 192 188 188 191 185 185 181 180 174 174 173 180 180 186 187 182 181 177
228 122 263 236 237 273 8 14 17 12 302 314 319 227 318 309 318 329 309 243 226 212 205 206 204 203 204 201 200 199 196 195 197 194 192 189 188 185 179 178 179 178 182 180 184 190 188 184 180
233 7 242 249 194 259 337 6 320 308 278 289 286 295 302 300 317 320 303 227 233 224 208 211 206 205 205 206 202 202 201 202 200 196 193 191 191 190 183 183 180 179 185 181 188 192 194 192 188
172 195 226 215 215 250 305 300 299 301 287 281 291 298 269 291 306 315 318 271 210 227 222 211 210 208 207 207 206 202 203 202 199 197 194 194 194 192 188 190 181 183 181 182 196 198 201 201 199
216 223 218 233 252 293 281 284 278 238 265 258 274 283 282 294 291 295 300 304 287 226 223 221 213 210 210 204 209 202 204 200 200 196 197 197 196 196 195 189 187 181 179 186 200 202 208 210 208
286 253 250 263 278 301 260 263 245 248 255 270 279 283 286 279 281 288 290 288 292 280 237 220 222 215 211 210 206 202 204 201 202 200 196 199 199 200 198 196 192 183 186 193 200 206 215 216 214
249 256 264 280 282 273 283 262 260 259 266 271 276 274 275 271 273 278 277 277 284 282 271 232 224 219 215 214 210 208 203 203 203 200 200 204 202 201 201 197 195 189 193 199 205 211 219 220 218
251 254 271 284 277 272 267 264 238 270 273 273 267 268 268 270 251 267 271 273 279 278 276 257 232 221 221 217 213 210 204 203 204 202 203 205 204 205 205 200 195 196 199 203 209 216 224 228 225
289 289 275 266 265 265 266 270 228 267 277 265 268 265 267 272 269 262 270 272 273 273 270 273 262 240 230 219 213 212 205 203 205 205 206 207 206 206 206 203 199 200 205 208 210 215 220 224 225
272 243 299 282 194 241 196 272 270 279 267 262 266 267 269 274 277 266 266 267 265 268 262 272 274 244 225 218 214 207 206 205 206 208 207 207 209 210 208 207 205 204 209 213 214 219 222 224 229
216 273 268 298 241 239 200 286 270 288 266 257 263 275 285 285 275 266 269 268 266 261 257 257 286 237 240 212 208 213 206 206 206 213 209 210 211 211 215 209 207 208 212 215 219 223 226 229 233
291 289 284 282 244 293 274 270 273 259 253 254 263 272 276 275 274 263 261 258 265 271 239 243 266 253 233 203 211 209 207 205 209 213 218 217 215 216 221 210 207 210 214 217 222 226 230 234 234
278 275 278 280 287 283 270 270 268 262 252 257 261 261 262 267 271 264 266 262 271 279 226 233 269 229 221 219 223 210 205 208 216 215 218 218 217 214 212 211 210 212 217 220 224 230 233 236 236
292 280 278 281 250 303 283 274 278 273 255 252 249 257 259 265 269 262 258 264 270 281 231 225 261 220 222 211 208 222 212 207 218 218 219 219 219 216 215 216 215 216 219 221 226 228 236 239 238
317 276 276 284 317 254 277 283 281 304 324 299 279 282 269 263 273 265 249 258 271 269 220 223 278 228 205 209 235 225 211 205 215 220 220 219 218 218 219 222 221 220 224 227 232 234 234 240 246
300 241 303 293 306 275 61 291 10 15 17 5 346 332 327 325 265 268 259 248 255 259 223 198 258 221 208 205 212 204 217 214 218 220 221 219 219 220 221 225 227 226 228 234 239 241 242 244 248
255 300 292 285 274 281 253 226 17 14 348 340 331 321 314 313 304 260 261 251 234 253 224 182 207 124 214 213 239 224 217 222 219 227 226 224 223 224 226 228 229 231 230 236 241 253 242 246 254
322 305 309 328 233 213 300 202 57 11 333 324 320 311 304 302 289 254 253 244 237 245 211 166 150 155 191 187 233 205 208 223 221 225 229 229 228 225 228 231 234 238 242 242 249 251 256 256 257
348 347 337 1 13 230 343 247 70 354 349 329 314 305 294 287 281 234 212 201 222 195 185 158 173 98 76 89 105 250 195 221 226 231 233 232 229 228 228 230 234 239 243 244 251 256 258 256 251
335 345 344 312 326 318 310 352 134 3 332 341 339 312 292 324 326 348 109 201 202 152 149 142 128 99 114 116 108 111 75 325 248 240 227 226 224 220 220 223 230 235 237 242 253 268 273 278 275
340 341 303 254 239 249 344 2 229 345 348 347 342 40 66 67 77 85 91 94 106 112 133 142 136 115 96 98 103 73 52 353 142 180 165 172 158 173 173 193 226 240 234 237 276 263 268 267 260
341 345 1 349 349 342 64 50 343 343 342 333 341 34 54 63 66 76 86 90 102 117 128 136 126 113 109 105 94 82 73 59 80 103 105 115 106 108 119 95 110 120 102 72 104 102 82 83 85
8 12 345 276 305 345 344 48 356 341 338 329 338 25 38 50 62 77 91 98 106 112 112 114 110 110 105 101 98 90 77 85 87 79 83 84 84 81 89 86 87 77 72 68 64 66 68 68 68
32 7 340 72 344 349 318 65 10 354 336 344 353 15 34 46 59 72 82 93 101 106 106 107 108 105 101 100 99 96 94 93 91 92 89 86 85 85 83 85 82 80 79 77 75 75 76 75 72